Time,TemperatureF,DewpointF,PressureIn,WindDirection,WindDirectionDegrees,WindSpeedMPH,WindSpeedGustMPH,Humidity,HourlyPrecipIn,Conditions,Clouds,dailyrainin,SoftwareType,DateUTC
2013-10-23 00:00:00,32.0,25.9,30.09,NE,45,0.0,0.0,78,0.00,,,-99.99,Weather View 32 v60,2013-10-23 05:00:00,
2013-10-23 00:06:00,35.0,27.9,29.44,NNW,338,0.0,5.0,75,0.00,,,-99.99,Weather View 32 v60,2013-10-23 05:06:00,
2013-10-23 00:29:00,34.0,27.2,29.44,North,0,0.0,5.0,76,0.00,,,-99.99,Weather View 32 v60,2013-10-23 05:29:00,
2013-10-23 00:30:00,30.0,25.5,30.09,North,0,0.0,0.0,83,0.00,,,-99.99,Weather View 32 v60,2013-10-23 05:30:00,
2013-10-23 00:59:00,33.0,27.2,29.44,SSW,202,0.0,3.0,79,0.00,,,-99.99,Weather View 32 v60,2013-10-23 05:59:00,
2013-10-23 01:00:00,30.0,26.3,30.09,WNW,292,0.0,0.0,86,0.00,,,-99.99,Weather View 32 v60,2013-10-23 06:00:00,
2013-10-23 01:06:00,33.0,27.2,29.44,SSW,202,0.0,3.0,79,0.00,,,-99.99,Weather View 32 v60,2013-10-23 06:06:00,
2013-10-23 01:29:00,32.0,27.1,29.42,SW,225,0.0,3.0,82,0.00,,,-99.99,Weather View 32 v60,2013-10-23 06:29:00,
2013-10-23 01:30:00,28.0,24.4,30.09,NNE,22,0.0,0.0,86,0.00,,,-99.99,Weather View 32 v60,2013-10-23 06:30:00,
2013-10-23 01:59:00,31.0,27.6,29.44,SSE,158,0.0,2.0,87,0.00,,,-99.99,Weather View 32 v60,2013-10-23 06:59:00,
2013-10-23 02:00:00,28.0,25.4,30.09,WNW,292,0.0,0.0,90,0.00,,,-99.99,Weather View 32 v60,2013-10-23 07:00:00,
2013-10-23 02:07:00,31.0,27.6,29.44,SSE,158,0.0,2.0,87,0.00,,,-99.99,Weather View 32 v60,2013-10-23 07:07:00,
2013-10-23 02:29:00,30.0,26.9,29.43,SSW,202,1.0,3.0,88,0.00,,,-99.99,Weather View 32 v60,2013-10-23 07:29:00,
2013-10-23 02:30:00,27.0,24.7,30.09,NNW,338,0.0,0.0,91,0.00,,,-99.99,Weather View 32 v60,2013-10-23 07:30:00,
2013-10-23 02:59:00,30.0,28.0,29.43,South,180,0.0,4.0,92,0.00,,,-99.99,Weather View 32 v60,2013-10-23 07:59:00,
2013-10-23 03:00:00,27.0,25.2,30.09,NW,315,0.0,0.0,93,0.00,,,-99.99,Weather View 32 v60,2013-10-23 08:00:00,
2013-10-23 03:07:00,30.0,28.0,29.43,South,180,0.0,4.0,92,0.00,,,-99.99,Weather View 32 v60,2013-10-23 08:07:00,
2013-10-23 03:29:00,30.0,28.2,29.43,SW,225,3.0,5.0,93,0.00,,,-99.99,Weather View 32 v60,2013-10-23 08:29:00,
2013-10-23 03:30:00,27.0,25.5,30.10,NW,315,0.0,0.0,94,0.00,,,-99.99,Weather View 32 v60,2013-10-23 08:30:00,
2013-10-23 03:59:00,30.0,28.5,29.41,West,270,0.0,5.0,94,0.00,,,-99.99,Weather View 32 v60,2013-10-23 08:59:00,
2013-10-23 04:00:00,27.0,25.5,30.09,WNW,292,0.0,0.0,94,0.00,,,-99.99,Weather View 32 v60,2013-10-23 09:00:00,
2013-10-23 04:08:00,30.0,28.5,29.41,West,270,0.0,5.0,94,0.00,,,-99.99,Weather View 32 v60,2013-10-23 09:08:00,
2013-10-23 04:29:00,30.0,28.5,29.43,SSW,202,1.0,5.0,94,0.00,,,-99.99,Weather View 32 v60,2013-10-23 09:29:00,
2013-10-23 04:30:00,28.0,26.2,30.09,West,270,0.0,0.0,93,0.00,,,-99.99,Weather View 32 v60,2013-10-23 09:30:00,
2013-10-23 04:59:00,30.0,28.7,29.42,West,270,0.0,2.0,95,0.00,,,-99.99,Weather View 32 v60,2013-10-23 09:59:00,
2013-10-23 05:00:00,27.0,25.8,30.07,NW,315,0.0,0.0,95,0.00,,,-99.99,Weather View 32 v60,2013-10-23 10:00:00,
2013-10-23 05:09:00,30.0,28.7,29.42,West,270,0.0,2.0,95,0.00,,,-99.99,Weather View 32 v60,2013-10-23 10:09:00,
2013-10-23 05:29:00,30.0,29.0,29.43,NW,315,3.0,5.0,96,0.00,,,-99.99,Weather View 32 v60,2013-10-23 10:29:00,
2013-10-23 05:30:00,26.0,25.0,30.09,NNW,338,0.0,0.0,96,0.00,,,-99.99,Weather View 32 v60,2013-10-23 10:30:00,
2013-10-23 05:59:00,30.0,29.0,29.44,WNW,292,3.0,5.0,96,0.00,,,-99.99,Weather View 32 v60,2013-10-23 10:59:00,
2013-10-23 06:00:00,27.0,26.3,30.10,NNE,22,0.0,0.0,97,0.00,,,-99.99,Weather View 32 v60,2013-10-23 11:00:00,
2013-10-23 06:09:00,30.0,29.0,29.44,WNW,292,3.0,5.0,96,0.00,,,-99.99,Weather View 32 v60,2013-10-23 11:09:00,
2013-10-23 06:29:00,29.0,28.0,29.44,WSW,248,2.0,5.0,96,0.00,,,-99.99,Weather View 32 v60,2013-10-23 11:29:00,
2013-10-23 06:30:00,28.0,27.0,30.10,North,0,0.0,0.0,96,0.00,,,-99.99,Weather View 32 v60,2013-10-23 11:30:00,
2013-10-23 06:59:00,29.0,28.0,29.45,WSW,248,3.0,6.0,96,0.00,,,-99.99,Weather View 32 v60,2013-10-23 11:59:00,
2013-10-23 07:00:00,29.0,28.0,29.45,WSW,248,3.0,6.0,96,0.00,,,-99.99,Weather View 32 v60,2013-10-23 12:00:00,
2013-10-23 07:29:00,29.0,28.0,29.44,West,270,1.0,6.0,96,0.00,,,-99.99,Weather View 32 v60,2013-10-23 12:29:00,
2013-10-23 07:30:00,27.0,26.3,30.09,West,270,0.0,0.0,97,0.00,,,-99.99,Weather View 32 v60,2013-10-23 12:30:00,
2013-10-23 07:59:00,29.0,28.0,29.45,WNW,292,2.0,5.0,96,0.00,,,-99.99,Weather View 32 v60,2013-10-23 12:59:00,
2013-10-23 08:00:00,27.0,26.5,30.10,WNW,292,0.0,0.0,98,0.00,,,-99.99,Weather View 32 v60,2013-10-23 13:00:00,
2013-10-23 08:30:00,30.0,29.5,30.10,NNW,338,0.0,0.0,98,0.00,,,-99.99,Weather View 32 v60,2013-10-23 13:30:00,
2013-10-23 09:00:00,33.0,31.5,30.10,North,0,0.0,0.0,94,0.00,,,-99.99,Weather View 32 v60,2013-10-23 14:00:00,
2013-10-23 09:30:00,35.0,32.4,30.09,NE,45,0.0,0.0,90,0.00,,,-99.99,Weather View 32 v60,2013-10-23 14:30:00,
2013-10-23 10:00:00,36.0,31.0,30.10,NE,45,0.0,0.0,82,0.00,,,-99.99,Weather View 32 v60,2013-10-23 15:00:00,
2013-10-23 10:30:00,40.0,32.0,30.10,NNE,22,0.0,0.0,73,0.00,,,-99.99,Weather View 32 v60,2013-10-23 15:30:00,
2013-10-23 11:00:00,41.0,29.7,30.10,North,0,0.0,0.0,64,0.00,,,-99.99,Weather View 32 v60,2013-10-23 16:00:00,
2013-10-23 11:30:00,41.0,28.6,30.09,North,0,0.0,1.0,61,0.00,,,-99.99,Weather View 32 v60,2013-10-23 16:30:00,
2013-10-23 12:00:00,41.0,28.2,30.09,NE,45,0.0,1.0,60,0.00,,,-99.99,Weather View 32 v60,2013-10-23 17:00:00,
2013-10-23 12:30:00,41.0,27.8,30.08,NNE,22,0.0,1.0,59,0.00,,,-99.99,Weather View 32 v60,2013-10-23 17:30:00,
2013-10-23 13:00:00,42.0,27.4,30.07,NW,315,0.0,1.0,56,0.00,,,-99.99,Weather View 32 v60,2013-10-23 18:00:00,
2013-10-23 13:30:00,43.0,26.6,30.07,NW,315,0.0,2.0,52,0.00,,,-99.99,Weather View 32 v60,2013-10-23 18:30:00,
2013-10-23 14:00:00,43.0,28.4,30.06,NNW,338,0.0,10.0,56,0.00,,,-99.99,Weather View 32 v60,2013-10-23 19:00:00,
2013-10-23 14:30:00,41.0,27.8,30.07,North,0,0.0,10.0,59,0.00,,,-99.99,Weather View 32 v60,2013-10-23 19:30:00,
2013-10-23 15:00:00,40.0,28.8,30.07,NE,45,0.0,8.0,64,0.00,,,-99.99,Weather View 32 v60,2013-10-23 20:00:00,
2013-10-23 15:30:00,40.0,28.8,30.08,NNE,22,0.0,8.0,64,0.00,,,-99.99,Weather View 32 v60,2013-10-23 20:30:00,
2013-10-23 16:00:00,40.0,29.2,30.08,NNW,338,0.0,0.0,65,0.00,,,-99.99,Weather View 32 v60,2013-10-23 21:00:00,
2013-10-23 16:30:00,38.0,29.4,30.10,NE,45,0.0,0.0,71,0.00,,,-99.99,Weather View 32 v60,2013-10-23 21:30:00,
2013-10-23 17:00:00,37.0,30.8,30.10,NNE,22,0.0,0.0,78,0.00,,,-99.99,Weather View 32 v60,2013-10-23 22:00:00,
2013-10-23 17:30:00,36.0,30.4,30.10,East,90,0.0,0.0,80,0.00,,,-99.99,Weather View 32 v60,2013-10-23 22:30:00,
2013-10-23 18:00:00,36.0,31.0,30.10,North,0,0.0,0.0,82,0.00,,,-99.99,Weather View 32 v60,2013-10-23 23:00:00,
2013-10-23 18:30:00,36.0,31.3,30.11,NNW,338,0.0,0.0,83,0.00,,,-99.99,Weather View 32 v60,2013-10-23 23:30:00,
2013-10-23 19:00:00,35.0,30.4,30.12,North,0,0.0,0.0,83,0.00,,,-99.99,Weather View 32 v60,2013-10-24 00:00:00,
2013-10-23 19:30:00,35.0,30.4,30.12,North,0,0.0,0.0,83,0.00,,,-99.99,Weather View 32 v60,2013-10-24 00:30:00,
2013-10-23 20:00:00,35.0,30.4,30.12,ENE,68,0.0,0.0,83,0.00,,,-99.99,Weather View 32 v60,2013-10-24 01:00:00,
2013-10-23 20:30:00,36.0,30.7,30.12,NNE,22,0.0,0.0,81,0.00,,,-99.99,Weather View 32 v60,2013-10-24 01:30:00,
2013-10-23 21:00:00,36.0,30.4,30.13,NNE,22,0.0,0.0,80,0.00,,,-99.99,Weather View 32 v60,2013-10-24 02:00:00,
2013-10-23 21:30:00,35.0,29.5,30.13,NNE,22,0.0,0.0,80,0.00,,,-99.99,Weather View 32 v60,2013-10-24 02:30:00,
2013-10-23 22:00:00,35.0,29.5,30.13,NW,315,0.0,0.0,80,0.00,,,-99.99,Weather View 32 v60,2013-10-24 03:00:00,
2013-10-23 22:30:00,35.0,29.5,30.14,ENE,68,0.0,0.0,80,0.00,,,-99.99,Weather View 32 v60,2013-10-24 03:30:00,
2013-10-23 23:00:00,35.0,29.8,30.14,North,0,0.0,0.0,81,0.00,,,-99.99,Weather View 32 v60,2013-10-24 04:00:00,
2013-10-23 23:30:00,35.0,29.8,30.15,North,0,0.0,0.0,81,0.00,,,-99.99,Weather View 32 v60,2013-10-24 04:30:00,